Other Public Products
Issued by NWS Grand Forks, ND

Home | Current Version | Previous Version | Text Only | Print | Product List | Glossary Off
Versions: 1 2 3 4 5 6 7 8 9 10 11 12 13 14 15 16 17 18 19 20 21 22 23 24 25 26 27 28 29 30 31 32 33 34 35 36 37 38 39 40 41 42 43 44 45 46 47 48 49 50

638
FPUS83 KFGF 271510
OPUFGF
PRAIRIE TO PINES WEATHER ROUNDUP
NATIONAL WEATHER SERVICE EASTERN NORTH DAKOTA/GRAND FORKS ND
1000 AM CDT WED JUL 27 2016

 **SATELLITE DATA USED TO AUGMENT SKY COVER AT AUTOMATED STATIONS**
 *****  WEATHER ACROSS EASTERN NORTH DAKOTA  *****

CITY           SKY/WX    TMP DP  RH WIND       PRES   REMARKS
GRAND FORKS    MOSUNNY   69  60  73 N12       30.06R
GRAND FORKS AF MOSUNNY   70  60  69 N9        30.07S
GRAND CITY NWS   N/A     68 N/A N/A N3          N/A
BUXTON           N/A     71  62  72 NW9         N/A
DEVILS LAKE    CLOUDY    65  57  75 N8        30.13S
FARGO          SUNNY     71  60  68 N15       30.03R
WAHPETON ARPT  CLOUDY    68  61  77 NE9       30.00F
$$

 *****  WEATHER ACROSS CENTRAL AND WESTERN NORTH DAKOTA  *****

CITY           SKY/WX    TMP DP  RH WIND       PRES   REMARKS
JAMESTOWN      SUNNY     69  60  73 NE10      30.08S
BISMARCK       MOSUNNY   70  62  76 VRB3      30.11S
MINOT          CLOUDY    70  59  68 SE5       30.14R
MINOT AFB      PTSUNNY   67  58  72 VRB5      30.14R
GARRISON         N/A     69  63  81 E7        30.13R
WILLISTON      CLOUDY    68  56  65 N6        30.13S
DICKINSON      PTSUNNY   64  60  87 CALM      30.13R
HETTINGER      CLOUDY    67  60  78 NE6       30.15R
$$

 *****  OTHER OBSERVATIONS NORTHEAST NORTH DAKOTA  *****

CITY           SKY/WX    TMP DP  RH WIND       PRES   REMARKS
WALHALLA       NOT AVBL
LANGDON        FAIR      68  59  73 NE10      30.13S
CAVALIER       FAIR      66  57  72 N10       30.10S
GRAFTON        FAIR      66  61  82 N17       30.09S
CANDO          NOT AVBL
FORT TOTTEN      N/A     68  59  72 NE5       29.95S
ROLLA          FAIR      64  55  72 NE9       30.16S
RUGBY          NOT AVBL
 ***** THE ABOVE OBSERVATIONS ARE NON NWS ARE NOT QUALITY
        CONTROLLED AND MAY MIS-REPORT RAIN FOR SNOW...
$$

 *****  OTHER OBSERVATIONS SOUTHEAST NORTH DAKOTA *****

CITY           SKY/WX    TMP DP  RH WIND       PRES   REMARKS
COOPERSTOWN    NOT AVBL
VALLEY CITY    CLOUDY    66  59  77 NE10G17   30.09S
OAKES            N/A    N/A N/A N/A MISG        N/A
GWINNER        FAIR      72  63  73 N10       30.04S
SHEYENNE NWR     N/A     71  61  70 NE9       29.95S
BUFFALO          N/A     69  54  58 N7          N/A
WYNDMERE       NOT AVBL
 ***** THE ABOVE OBSERVATIONS ARE NON NWS ARE NOT QUALITY
       CONTROLLED AND MAY MIS-REPORT RAIN FOR SNOW...
$$

  *****  WEATHER ACROSS NORTHERN MINNESOTA  *****

CITY           SKY/WX    TMP DP  RH WIND       PRES   REMARKS
FLAG ISLAND    NOT AVBL
WARROAD        NOT AVBL
ROSEAU         NOT AVBL
HALLOCK        NOT AVBL
THF RVR FALLS  MOSUNNY   70  55  59 N10       30.05R
HALSTAD          N/A     72  59  64 N12         N/A
FOSSTON        NOT AVBL
BAUDETTE       CLOUDY    71  58  63 E9        30.05R
WASKISH        NOT AVBL
CROOKSTON      NOT AVBL
$$
  *****  WEATHER ACROSS CENTRAL AND WEST MINNESOTA  *****

CITY           SKY/WX    TMP DP  RH WIND       PRES   REMARKS
BEMIDJI        NOT AVBL
PARK RAPIDS    LGT RAIN  65  62  90 N8        30.00R
WADENA         NOT AVBL
DETROIT LAKES  NOT AVBL
MOORHEAD       NOT AVBL
FERGUS FALLS   NOT AVBL
ELBOW LAKE     NOT AVBL
MORRIS MN      NOT AVBL
STAPLES        NOT AVBL
WHEATON        NOT AVBL
$$
  *****  WEATHER ELSEWHERE ACROSS MINNESOTA  *****

CITY           SKY/WX    TMP DP  RH WIND       PRES   REMARKS
DULUTH         LGT RAIN  66  57  72 E12       30.01R
INTRNTL FALLS  CLOUDY    68  57  68 E5        30.05S
ELY            NOT AVBL
CLOQUET        NOT AVBL
BRAINERD       LGT RAIN  66  64  93 N7        30.00S
HIBBING        CLOUDY    67  57  70 E7        30.03R THUNDER
ALEXANDRIA     CLOUDY    68  65  90 MISG      30.00R
SAINT CLOUD    LGT RAIN  70  69  97 CALM      29.95F
MINNEAPOLIS    CLOUDY    78  68  71 S6        29.96F
$$

  *****  WEATHER ACROSS SOUTH DAKOTA  *****

CITY           SKY/WX    TMP DP  RH WIND       PRES   REMARKS
SIOUX FALLS    MOSUNNY   78  67  68 N9        29.98R
BROOKINGS      PTSUNNY   71  66  84 N10       30.01R
WATERTOWN      PTSUNNY   71  63  75 N13       30.02S
HURON          SUNNY     74  64  71 N13       30.00F
SISSETON         N/A     69  66  90 N9        30.00S
ABERDEEN       CLOUDY    69  63  81 N12       30.04S
MITCHELL       SUNNY     78  64  61 NW12      30.00F
PIERRE         SUNNY     74  64  71 N5        30.05R
MOBRIDGE       CLOUDY    70  62  76 N6        30.08R
RAPID CITY     CLOUDY    69  62  78 CALM      30.12S
$$

  *****  SOME WEATHER IN NEARBY STATES *****

CITY           SKY/WX    TMP DP  RH WIND       PRES   REMARKS
GLASGOW MT     CLOUDY    64  61  90 NE6       30.13R
GREAT FALLS MT SUNNY     65  54  67 VRB5      30.19R
CHEYENNE WY    SUNNY     66  53  63 N10       30.29F
SCOTTSBLUFF NE MOSUNNY   69  60  73 E13       30.15F
OMAHA NE       CLOUDY    78  68  71 SW8       30.01R
DES MOINES IA  CLOUDY    78  67  68 S5        30.00R
DAVENPORT IA   MOSUNNY   79  68  69 CALM      30.03S
CHICAGO IL     MOSUNNY   84  62  47 VRB3      30.00F
EAU CLAIRE WI  CLOUDY    75  68  78 E8        30.00F
LA CROSSE WI   PTSUNNY   80  69  69 VRB5      30.00F
$$

  *****  SOME NATIONAL WEATHER *****

CITY           SKY/WX    TMP DP  RH WIND       PRES   REMARKS
LA GUARDIA NY  MOSUNNY   84  60  44 NE9       29.95S
RALEIGH NC     CLOUDY    86  78  77 VRB3      29.99F HX  98
ATLANTA GA     PTSUNNY   81  71  71 NW9       30.10S
NEW ORLEANS LA CLOUDY    80  73  79 W5        30.05R
OKLAHOMA CITY  CLOUDY    80  70  71 CALM      30.00S
ALBUQUERQUE NM MOSUNNY   76  59  55 VRB6      30.25S
SALT LAKE CITY SUNNY     82  39  21 SE5       30.12R
LOS ANGELES CA MOSUNNY   71  65  81 W7        29.91R
BOISE ID       SUNNY     76  42  29 SE5       30.06R
SEATTLE WA     MOSUNNY   61  58  90 CALM      30.15S
$$

*** WEATHER ACROSS MANITOBA...SASKATCHEWAN AND ONTARIO ***
                ***ONTARIO***

CITY           SKY/WX    TMP DP  RH WIND       PRES   REMARKS
GERALDTON      MOSUNNY   63  50  63 NW8       30.04F
THUNDER BAY    PTSUNNY   68  55  64 E3        30.04S
SIOUX LOOKOUT  PTSUNNY   63  54  72 N6        30.12R
TORONTO        MOSUNNY   88  61  40 W12       29.94F
BIG TROUT LK   NOT AVBL
PICKLE LAKE    PTSUNNY   59  48  67 VRB6      30.11S
DRYDEN         CLOUDY    64  55  72 NE8       30.11R
KENORA         NOT AVBL
$$
                *** MANITOBA***

CITY           SKY/WX    TMP DP  RH WIND       PRES   REMARKS
BRANDON        PTSUNNY   66  55  68 NE10      30.17R
DAUPHIN        CLOUDY    64  57  77 N7        30.18S
ISLAND LAKE    PTSUNNY   61  52  72 N5        30.19R
PILOT MOUND      N/A     64  55  72 N9          N/A
THE PAS        MOSUNNY   66  55  68 S7        30.18S
THOMPSON       MOSUNNY   61  52  72 VRB3      30.18F
WINNIPEG       MOSUNNY   66  57  72 NE8       30.12R
LYNN LAKE      PTSUNNY   66  52  59 MISG      30.11S
CHURCHILL      MOSUNNY   59  50  72 N6        30.14S
GILLAM         PTSUNNY   61  45  55 NW5       30.16F
$$
                ***SASKATCHEWAN***

CITY           SKY/WX    TMP DP  RH WIND       PRES   REMARKS
ESTEVAN        MOSUNNY   66  59  77 E6        30.15R
KINDERSLEY     MOSUNNY   66  55  68 SE12G18   30.17R
LLOYDMINSTER   PTSUNNY   63  57  82 S7        30.15R
PRINCE ALBERT  MOSUNNY   70  57  64 SW6       30.17F
REGINA         PTSUNNY   66  57  72 SE5       30.18R
YORKTON        SUNNY     64  55  72 E6        30.19F  C1F1C2F2C3F3C4F4C5F5C6F6C7F7C8F8C9F9CaFaCbFbCcFcCdFdCe!



USA.gov is the U.S. government's official web portal to all federal, state and local government web resources and services.